[[{"header":{"parameterUnit":"m.s-1","parameterCategory":1,"la1":30.2991,"la2":30.254,"lo1":-89.0895,"lo2":-89.0444,"dy":0.0017,"dx":0.0017,"nx":28,"ny":28,"refTime":"2025-06-16T21:00:00:Z","depth":0,"parameterNumber":2,"parameterNumberName":"U-component_of_WINDS"},"data":[0,0,0,0,0,0,0,0,0,0,0,0,0,0,0,0,0,0,0,0,0,0,0,0,0,0,0,0,0,0,0,0,0,0,0,0,0,0,0,0,0,0,0,0,0,0,0,0,0,0,0,0,0,0,0,0,0,0,1.3019,1.3019,0,1.3063,1.3063,1.3064,1.3062,1.3062,1.3061,1.306,1.3104,1.3106,1.3108,0,0,0,0,0,0,0,0,0,0,0,0,0,1.2932,1.2933,1.3019,1.302,1.302,1.3063,1.3063,1.3064,1.3062,1.3062,1.3061,1.306,1.3104,1.3106,1.3108,0,0,0,0,0,0,0,0,0,0,0,0,0,1.2972,1.2934,1.3019,1.3025,1.3025,1.3062,1.3063,1.3064,1.3063,1.3062,1.3061,1.306,1.3103,1.3105,1.3108,1.3142,0,0,1.3116,1.3117,0,0,0,0,0,0,0,0,1.297,1.2975,1.3023,1.3024,1.3025,1.3056,1.3048,1.309,1.3063,1.3048,1.306,1.3059,1.3089,1.3092,1.3103,1.3144,1.3146,1.3116,1.3118,1.3119,1.3119,0,0,0,0,0,0,0,1.2967,1.2973,1.3036,1.3024,1.3025,1.3024,1.3029,1.3056,1.3073,1.305,1.305,1.3055,1.3089,1.31,1.3104,1.3146,1.3116,1.3118,1.312,1.3121,1.3216,1.3216,0,0,0,0,0,0,1.2963,1.2971,1.3035,1.3038,1.2995,1.3026,1.3032,1.3047,1.3073,1.3076,1.3056,1.3055,1.3096,1.3101,1.3105,1.3146,1.3119,1.3121,1.3123,1.3215,1.3216,1.3217,0,0,0,0,0,0,1.2961,1.2969,1.3033,1.3004,1.3012,1.3029,1.3046,1.3048,1.3059,1.3077,1.308,1.3064,1.3096,1.3102,1.3132,1.3147,1.3122,1.3125,1.3213,1.3215,1.3216,1.3228,0,0,0,0,0,0,1.2959,1.2968,1.2982,1.3005,1.3014,1.3061,1.3047,1.305,1.3064,1.3063,1.3086,1.3089,1.3095,1.3129,1.3135,1.315,1.3127,1.3212,1.3214,1.3216,1.3226,1.323,1.3232,0,0,0,0,0,1.2956,1.2984,1.2983,1.2991,1.3032,1.3062,1.3067,1.3074,1.3065,1.3079,1.309,1.3088,1.3144,1.3132,1.3139,1.3155,1.3211,1.3214,1.3216,1.3225,1.3229,1.3232,0,0,0,0,0,0,1.2963,1.2987,1.2986,1.3023,1.304,1.3061,1.3079,1.3078,1.3099,1.3097,1.3105,1.311,1.314,1.3151,1.3136,1.3188,1.3177,1.318,1.3181,1.3185,1.3188,1.3185,1.3129,0,0,0,0,0,1.2969,1.2992,1.3011,1.3041,1.305,1.3063,1.3076,1.308,1.3098,1.3106,1.3119,1.3136,1.3157,1.3172,1.3192,1.3227,1.3231,1.3242,1.3245,1.3247,1.3251,1.3268,1.3273,1.3224,1.3224,1.3224,0,0,1.2982,1.2997,1.3012,1.3043,1.3057,1.308,1.3069,1.3094,1.311,1.3109,1.3139,1.3149,1.3169,1.3201,1.3216,1.3211,1.3265,1.325,1.3252,1.3254,1.3271,1.3276,1.328,1.3225,1.3225,1.3225,0,0,1.3016,1.3031,1.3057,1.3071,1.3092,1.3099,1.3105,1.3126,1.3133,1.3163,1.3162,1.3181,1.3218,1.3232,1.3243,1.328,1.3278,1.3286,1.3302,1.332,1.3323,1.3327,1.3339,1.3344,1.3289,1.3289,1.3289,0,1.303,1.3064,1.3071,1.3095,1.3108,1.3107,1.3133,1.3146,1.3172,1.3181,1.3174,1.322,1.3233,1.3268,1.3277,1.3286,1.3293,1.3284,1.3322,1.3326,1.3329,1.3341,1.3346,1.329,1.329,1.329,1.329,0,1.3079,1.3103,1.3121,1.3146,1.3161,1.3187,1.3196,1.321,1.3211,1.3219,1.3249,1.3264,1.3287,1.3296,1.3298,1.333,1.3326,1.3321,1.3309,1.3335,1.3346,1.3351,1.3291,1.3291,1.3291,1.329,0,0,1.3123,1.3149,1.3156,1.3166,1.3188,1.3206,1.3229,1.3252,1.3264,1.3281,1.3301,1.3331,1.3325,1.3338,1.3342,1.3356,1.3383,1.3349,1.3349,1.3355,1.3419,1.3424,1.3429,1.3382,1.3383,1.3383,1.3418,0,1.316,1.3203,1.3208,1.3246,1.3267,1.3265,1.3285,1.33,1.3307,1.3326,1.3333,1.3354,1.3346,1.3353,1.3368,1.3377,1.3396,1.3375,1.34,1.3401,1.3396,1.3435,1.3441,1.3472,1.3422,1.3423,1.3423,0,1.321,1.3228,1.3268,1.3285,1.3294,1.3312,1.3332,1.335,1.3365,1.3369,1.3383,1.3383,1.3406,1.3393,1.3424,1.3409,1.3419,1.3425,1.3426,1.343,1.3415,1.344,1.3483,1.3488,1.3431,1.343,1.343,0,1.3237,1.3272,1.33,1.3309,1.3329,1.3342,1.335,1.3365,1.3378,1.3394,1.3402,1.3421,1.3432,1.3446,1.3452,1.3441,1.3483,1.3469,1.3486,1.3486,1.3496,1.3496,1.3542,1.3502,1.3502,1.3502,1.3502,0,1.3279,1.3304,1.3312,1.333,1.3356,1.336,1.3387,1.3395,1.3407,1.3425,1.3424,1.3441,1.3446,1.3463,1.3467,1.3492,1.3497,1.3501,1.3501,1.3501,1.3501,1.3509,1.3507,1.3503,1.3503,1.3502,1.3502,0,1.3315,1.3322,1.3353,1.3368,1.3372,1.3391,1.3404,1.342,1.3426,1.3449,1.3454,1.3464,1.3484,1.349,1.3514,1.3516,1.3546,1.3544,1.3541,1.3541,1.3557,1.3556,1.3611,1.3618,1.3573,1.3573,1.3574,0,1.3342,1.3361,1.3378,1.339,1.3399,1.3418,1.343,1.3434,1.3447,1.3464,1.3478,1.3498,1.3514,1.3546,1.3554,1.3572,1.3571,1.3589,1.3574,1.3573,1.3572,1.3571,1.3572,1.3592,1.3593,1.3593,1.3594,0,1.3389,1.339,1.3408,1.3426,1.3441,1.3456,1.347,1.3479,1.3485,1.3499,1.3519,1.3531,1.3555,1.3574,1.3592,1.36,1.3598,1.3598,1.3603,1.3603,1.36,1.3602,1.3549,1.3597,1.3597,1.3596,1.3596,1.3596,1.3421,1.3437,1.3451,1.347,1.3481,1.3493,1.3509,1.3516,1.3533,1.3552,1.3553,1.3575,1.3587,1.3611,1.362,1.3636,1.3631,1.3638,1.364,1.3642,1.3643,1.3597,1.3639,1.3639,1.3639,1.3639,1.3639,0,1.3468,1.3476,1.3493,1.3512,1.3527,1.3522,1.3537,1.3549,1.3568,1.358,1.3596,1.3618,1.3636,1.3645,1.3662,1.3673,1.3672,1.3678,1.3677,1.3679,1.3647,1.3641,1.3678,1.3678,1.3678,1.3678,1.3678,1.3678,1.3494,1.352,1.3523,1.3553,1.3561,1.3582,1.3591,1.3601,1.3611,1.3636,1.3651,1.3656,1.3666,1.3684,1.37,1.3702,1.3708,1.3714,1.3716,1.3686,1.3682,1.3678,1.3672,1.3715,1.3716,1.3747,1.3747,1.3747]},{"header":{"parameterUnit":"m.s-1","parameterCategory":1,"la1":30.2991,"la2":30.254,"lo1":-89.0895,"lo2":-89.0444,"dy":0.0017,"dx":0.0017,"nx":28,"ny":28,"refTime":"2025-06-16T21:00:00:Z","depth":0,"parameterNumber":3,"parameterNumberName":"V-component_of_WINDS"},"data":[0,0,0,0,0,0,0,0,0,0,0,0,0,0,0,0,0,0,0,0,0,0,0,0,0,0,0,0,0,0,0,0,0,0,0,0,0,0,0,0,0,0,0,0,0,0,0,0,0,0,0,0,0,0,0,0,0,0,4.0674,4.0676,0,4.079,4.0791,4.0792,4.0811,4.081,4.081,4.0809,4.0923,4.0927,4.093,0,0,0,0,0,0,0,0,0,0,0,0,0,4.0468,4.0472,4.0674,4.0676,4.0677,4.0789,4.0791,4.0792,4.0812,4.081,4.0809,4.0808,4.0921,4.0926,4.0931,0,0,0,0,0,0,0,0,0,0,0,0,0,4.0568,4.0473,4.0674,4.07,4.0704,4.0789,4.0791,4.0793,4.0812,4.081,4.0809,4.0808,4.092,4.0926,4.0931,4.0997,0,0,4.095,4.0952,0,0,0,0,0,0,0,0,4.0562,4.0576,4.0695,4.0699,4.0703,4.0785,4.076,4.0861,4.0812,4.0771,4.0809,4.0807,4.0878,4.0887,4.0912,4.1003,4.1007,4.095,4.0954,4.0956,4.0958,0,0,0,0,0,0,0,4.0555,4.0571,4.072,4.0697,4.0702,4.0706,4.0718,4.0779,4.0831,4.0774,4.0776,4.079,4.088,4.0906,4.0915,4.1009,4.095,4.0955,4.0959,4.0961,4.1162,4.1163,0,0,0,0,0,0,4.0544,4.0565,4.0716,4.0723,4.0628,4.071,4.0725,4.076,4.083,4.084,4.0791,4.079,4.0897,4.0908,4.0919,4.1002,4.0956,4.0962,4.0965,4.116,4.1162,4.1164,0,0,0,0,0,0,4.054,4.0558,4.0711,4.0645,4.0665,4.0716,4.0755,4.0763,4.0789,4.0843,4.0852,4.0808,4.0896,4.091,4.0978,4.1006,4.0964,4.097,4.1158,4.1161,4.1163,4.1168,0,0,0,0,0,0,4.0534,4.0556,4.0582,4.0645,4.0668,4.077,4.0757,4.0766,4.08,4.08,4.0862,4.0871,4.0896,4.0969,4.0984,4.1014,4.0974,4.1156,4.1159,4.1162,4.1166,4.1171,4.1175,0,0,0,0,0,4.0526,4.0577,4.0583,4.0601,4.0702,4.0772,4.0785,4.0814,4.0802,4.0829,4.0863,4.0869,4.1,4.0976,4.0993,4.1025,4.1154,4.1158,4.1162,4.1164,4.117,4.1175,0,0,0,0,0,0,4.0514,4.0586,4.0593,4.0666,4.0713,4.0775,4.0809,4.0819,4.0868,4.0866,4.0899,4.0913,4.098,4.1009,4.098,4.1093,4.1076,4.1084,4.1072,4.1078,4.1082,4.1074,4.0979,0,0,0,0,0,4.052,4.0572,4.0631,4.069,4.0713,4.0757,4.0788,4.0807,4.0856,4.0876,4.0915,4.0961,4.1014,4.1047,4.1098,4.117,4.1184,4.12,4.1204,4.1208,4.1214,4.1256,4.1264,4.1177,4.1177,4.1177,0,0,4.0533,4.0578,4.0609,4.0689,4.0727,4.078,4.0773,4.0828,4.0868,4.0883,4.0951,4.0982,4.1036,4.1106,4.1139,4.1133,4.1241,4.1213,4.1215,4.122,4.1261,4.1269,4.1277,4.118,4.1179,4.1179,0,0,4.0583,4.0622,4.0677,4.0716,4.0775,4.0804,4.0817,4.0878,4.0899,4.0968,4.0981,4.1028,4.1116,4.1155,4.1186,4.1253,4.126,4.1268,4.1292,4.1333,4.134,4.1346,4.1371,4.138,4.1274,4.1274,4.1274,0,4.0591,4.0672,4.0703,4.0759,4.0794,4.0812,4.0868,4.0904,4.0975,4.0999,4.099,4.1104,4.1141,4.1222,4.1239,4.1263,4.1279,4.1262,4.1336,4.1343,4.1349,4.1374,4.1383,4.1275,4.1275,4.1275,4.1275,0,4.0679,4.0735,4.0772,4.0843,4.0882,4.0937,4.0976,4.1012,4.1028,4.1057,4.1127,4.1173,4.1235,4.1255,4.1269,4.1339,4.1333,4.133,4.1314,4.1358,4.1382,4.1391,4.1276,4.1276,4.1275,4.1275,0,0,4.0724,4.0814,4.0827,4.0861,4.0927,4.0971,4.1027,4.1088,4.1119,4.1168,4.1216,4.1292,4.129,4.1325,4.1345,4.138,4.1432,4.1373,4.1375,4.1384,4.1513,4.1516,4.1526,4.1437,4.1439,4.144,4.1509,0,4.0784,4.0886,4.0917,4.1002,4.1055,4.1074,4.1123,4.1169,4.1198,4.1247,4.1278,4.1332,4.1325,4.1347,4.1383,4.1418,4.1459,4.1413,4.1482,4.1485,4.147,4.1538,4.1541,4.1603,4.1518,4.152,4.1521,0,4.0867,4.092,4.1011,4.1074,4.1097,4.114,4.12,4.1246,4.1299,4.1318,4.1359,4.1375,4.1434,4.1415,4.1497,4.1466,4.1496,4.1517,4.152,4.1529,4.1506,4.155,4.1624,4.1634,4.1535,4.1534,4.1533,0,4.0893,4.0986,4.1054,4.1082,4.1156,4.1186,4.1218,4.127,4.1305,4.1357,4.1381,4.1438,4.147,4.1513,4.1545,4.1528,4.1625,4.1608,4.1643,4.1642,4.1664,4.1662,4.1745,4.168,4.168,4.168,4.168,0,4.0956,4.1012,4.1067,4.1109,4.1172,4.1206,4.1267,4.13,4.1346,4.1394,4.1413,4.1457,4.1496,4.1545,4.157,4.1636,4.1649,4.1666,4.1673,4.1666,4.1664,4.1687,4.1684,4.1683,4.1682,4.1682,4.1681,0,4.0996,4.1035,4.1111,4.1175,4.1193,4.1237,4.1292,4.1333,4.1363,4.1424,4.144,4.1488,4.1547,4.1583,4.1658,4.1675,4.1747,4.1751,4.173,4.1733,4.1767,4.1764,4.1869,4.1885,4.1808,4.1809,4.1809,0,4.1035,4.1079,4.1149,4.1184,4.1217,4.1271,4.1309,4.1344,4.1382,4.1447,4.148,4.1541,4.1592,4.1686,4.1727,4.1785,4.1791,4.1824,4.1799,4.1792,4.1793,4.1791,4.1796,4.1828,4.1828,4.1829,4.1829,0,4.1101,4.1118,4.1172,4.1234,4.1278,4.1328,4.1377,4.1403,4.1447,4.1489,4.1551,4.1591,4.1668,4.1729,4.1791,4.1823,4.1834,4.1837,4.1848,4.1842,4.1829,4.1839,4.1743,4.1834,4.1834,4.1833,4.1833,4.1833,4.1142,4.1183,4.124,4.1299,4.1341,4.1387,4.1429,4.1466,4.1519,4.1587,4.1604,4.1669,4.1722,4.1806,4.184,4.1891,4.1886,4.1902,4.1907,4.1911,4.1913,4.182,4.1902,4.1902,4.1902,4.1902,4.1902,0,4.121,4.1248,4.1303,4.1373,4.142,4.1427,4.1483,4.1521,4.158,4.1628,4.1679,4.1751,4.1811,4.1857,4.1918,4.195,4.1957,4.1965,4.1964,4.1972,4.1913,4.1897,4.1959,4.1959,4.1959,4.1959,4.1959,4.1959,4.1251,4.1321,4.1346,4.1437,4.1473,4.154,4.1571,4.1613,4.1653,4.1734,4.1784,4.1814,4.1862,4.1927,4.1982,4.1994,4.2016,4.2024,4.2037,4.1982,4.1975,4.1969,4.1956,4.2028,4.2028,4.2092,4.2093,4.2093]}]]